Regional Weather Roundup
Issued by NWS

Home | Current Version | Previous Version | Text Only | Print | Product List | Glossary Off
Versions: 1 2 3 4 5 6 7 8 9 10 11 12 13 14 15 16 17 18 19 20 21 22 23 24 25 26 27 28 29 30 31 32 33 34 35 36 37 38 39 40 41 42 43 44 45 46 47 48 49 50

000
ASUS43 KFSD 240910
RWRSD

WEATHER ROUNDUP FOR SOUTH DAKOTA
NATIONAL WEATHER SERVICE SIOUX FALLS SD
400 AM CDT SAT JUN 24 2017

NOTE: "FAIR" INDICATES FEW OR NO CLOUDS BELOW 12,000 FEET WITH NO
SIGNIFICANT WEATHER AND/OR OBSTRUCTIONS TO VISIBILITY.


SDZ001>005-009-010-012>017-241000-
NORTHWEST AND NORTH CENTRAL SOUTH DAKOTA

CITY           SKY/WX    TMP DP  RH WIND       PRES   REMARKS
BUFFALO          N/A     45  30  55 W8        30.16S
FAITH            N/A     47  32  56 W9        30.18S
MOBRIDGE       CLEAR     45  38  76 NW3       30.09S
$$

SDZ012>016-024>037-041>051-057-063-072>074-241000-
SOUTHWEST AND SOUTH CENTRAL SOUTH DAKOTA

CITY           SKY/WX    TMP DP  RH WIND       PRES   REMARKS
RAPID CTY ARPT CLEAR     48  29  47 NW10      30.25S
PIERRE         CLEAR     48  36  63 W10       30.13F
CUSTER         CLOUDY    41  23  48 W5        30.31S
ELLSWORTH AFB  PTCLDY    46  29  51 W8        30.24S
PHILIP         MOCLDY    43  33  68 W9        30.20S
PINE RIDGE     CLEAR     42  34  73 CALM      30.26S
SPEARFISH      MOCLDY    46  32  57 W6        30.27F
WINNER         FAIR      44  34  67 SW6       30.18S
$$

SDZ004>011-016>023-039-040-241000-
NORTHEAST SOUTH DAKOTA

CITY           SKY/WX    TMP DP  RH WIND       PRES   REMARKS
ABERDEEN       CLEAR     40  38  93 SW5       30.07F
WATERTOWN      CLEAR     44  40  85 W8        30.06F
BROOKINGS      CLEAR     46  40  79 W3        30.09F
SISSETON         N/A     50  41  71 W6        30.02F
$$

SDZ017-020-022-023-036>040-048>070-241000-
SOUTHEAST SOUTH DAKOTA

CITY           SKY/WX    TMP DP  RH WIND       PRES   REMARKS
SIOUX FALLS    CLEAR     49  43  80 W6        30.11S
HURON          CLEAR     46  41  82 SW6       30.11F
CHAMBERLAIN    CLEAR     45  43  91 SW5       30.15F
MITCHELL       CLEAR     49  40  71 W6        30.13F
YANKTON        CLEAR     49  40  71 W7        30.15S
$$

ABBREVIATIONS USED IN REMARKS
   TC - TEMPERATURE IN CELSIUS
  WCI - WIND CHILL INDEX
   HX - HEAT INDEX
  VSB - VISIBILITY





USA.gov is the U.S. government's official web portal to all federal, state and local government web resources and services.